Regional Weather Roundup
Issued by NWS Pendleton, OR

Home | Current Version | Previous Version | Text Only | Print | Product List | Glossary On
Versions: 1 2 3 4 5 6 7 8 9 10 11 12 13 14 15 16 17 18 19 20 21 22 23 24 25 26 27 28 29 30 31 32 33 34 35 36 37 38 39 40 41 42 43 44 45 46 47 48 49 50
000
ASUS46 KPDT 011825
RWRPDT
PENDLETON REGIONAL WEATHER ROUNDUP
NATIONAL WEATHER SERVICE PENDLETON OREGON
1100 AM PDT SAT OCT 1 2016

NOTE: FAIR INDICATES FEW OR NO CLOUDS BELOW 12,000 FEET WITH NO
SIGNIFICANT WEATHER AND/OR OBSTRUCTIONS TO VISIBILITY.

# INDICATES UNOFFICIAL STATION AND DATA

WAZ520-011910-
EAST SLOPES OF WASHINGTON CASCADES

CITY            SKY/WX      TMP DP  RH  WIND    PRES   REMARKS
#CLE ELUM HS    N/A         50  38  63  CALM    29.89F
#CLE ELUM LAKE  N/A         50  39  66  CALM    29.88S
#GLENWOOD       N/A         52  43  71  SW2     29.97S
#MANASTASH CYN  N/A         53  33  46  CALM    29.91F
#NELSON 3SW     N/A         48  39  71  CALM    30.11S
#NILE           N/A         53  37  54  NE1     29.18F
#RONALD 2NW     N/A         50  N/A N/A SW1     29.97F
#TEANAWAY 4NE   N/A         56  40  55  SW3     N/A
#TROUT LAKE 1NE N/A         51  42  71  W5      29.97S
#TROUT LAKE 1E  N/A         52  43  71  CALM    29.97R
$$

WAZ521-011910-
SIMCOE HIGHLANDS

CITY            SKY/WX      TMP DP  RH  WIND    PRES   REMARKS
#CENTERVILLE 1SWN/A         55  40  57  CALM    29.94F
#GOLDENDALE 1NE N/A         56  30  37  CALM    N/A
#GOLDENDALE 4W  N/A         57  46  67  NW9     30.02F
#GOODNOE HILLS  N/A         60  42  51  S12     N/A
#LYLE 6NE       N/A         54  44  69  S2      29.95S
$$

WAZ026-011910-
KITTITAS VALLEY

CITY            SKY/WX      TMP DP  RH  WIND    PRES   REMARKS
ELLENSBURG AP   SUNNY       60  37  42  E7      29.94F
6HR MIN TEMP:   38; 6HR MAX TEMP:   60;

#ELLENSBURG CWU N/A         56  39  53  SE5     29.86F
#ELLENSBURG 3NE N/A         55  41  59  CALM    29.94F
#KITTITAS 4N    N/A         60  40  47  W1      29.94S
#KITTITAS 3S    N/A         57  42  57  CALM    29.91F
#THORP 6N       N/A         54  40  59  E6      29.92F
$$

WAZ027-011910-
YAKIMA VALLEY

CITY            SKY/WX      TMP DP  RH  WIND    PRES   REMARKS
SUNNYSIDE AP    PTCLDY      62  40  44  S9      29.97F
YAKIMA AIRPORT  SUNNY       64  37  37  S16G24  29.95F
6HR MIN TEMP:   39; 6HR MAX TEMP:   64;

YAKIMA-VAGABOND MOSUNNY     61  37  41  W15G25  29.93F
#GRANDVIEW      N/A         62  39  43  W6      29.97S
#MABTON         N/A         62  44  52  S8      29.97S
#NACHES 2SW     N/A         55  40  57  SE1     29.95F
#TERRACE HTS    N/A         61  41  48  SW7     29.89F
#TOPPENISH      N/A         61  39  44  S7      29.87S
#WEST VALLEY    N/A         59  40  49  SW2     29.91F
#WHITE SWAN 5E  N/A         65  43  45  SW7     29.94F
#WILEY CITY 3W  N/A         61  33  35  S2      29.91F
$$

WAZ028-011910-
LOWER COLUMBIA BASIN...WASHINGTON

CITY            SKY/WX      TMP DP  RH  WIND    PRES   REMARKS
HANFORD         MOSUNNY     65  35  33  SW16G24 29.95F
PASCO           SUNNY       65  40  40  SW12    30.00S
6HR MIN TEMP:   50; 6HR MAX TEMP:   65;

PROSSER AWOS    N/A         63  41  44  SW13    30.00F
RICHLAND AWOS   SUNNY       66  40  38  S9      29.99F
#BENTON CITY    N/A         61  42  50  SW10    29.87F
#CONNELL 5N     N/A         60  42  51  W7      29.96F
#CONNELL 5NW    N/A         59  44  57  S7      29.92S
#ELTOPIA 6NW    N/A         59  45  60  S3      28.96S
#KAHLOTUS       N/A         59  41  51  NW23G30 29.95S
#KENNEWICK 3S   N/A         62  44  52  N5      29.98S
#PATERSON       N/A         60  43  53  W9      29.97F
#SAGEMOOR 2W    N/A         61  43  51  SW9     29.83S
#TOUCHET 2S     N/A         64  44  48  W6      29.97F
#WEST PASCO     N/A         64  45  50  S5      29.99F
$$

WAZ029-011910-
FOOTHILLS OF THE BLUES...WASHINGTON

CITY            SKY/WX      TMP DP  RH  WIND    PRES   REMARKS
WALLA WALLA AP  SUNNY       61  37  41  S8      30.00S
6HR MIN TEMP:   50; 6HR MAX TEMP:   62;

#CLYDE 6NW      N/A         59  41  51  W15     29.96S
#LOWDEN 2SE     N/A         64  42  45  W6      29.96F
#PLEASANT VIEW 1N/A         60  39  46  SW12    29.98F
#PRESCOTT       N/A         62  41  46  SW3     29.96F
#WHITMAN COLLEGEN/A         60  41  49  SW3     30.02F
#WAITSBURG 5S   N/A         60  39  46  SW10    30.05S
#WHITMAN MISSIONN/A         62  44  52  SW5     29.99F
$$

WAZ030-011910-
BLUE MOUNTAINS...WASHINGTON

CITY            SKY/WX      TMP DP  RH  WIND    PRES   REMARKS
#DIXIE 5SE      N/A         54  35  48  SW7     29.94R
$$

ORZ009-041-WAZ024-011910-
COLUMBIA RIVER GORGE

CITY            SKY/WX      TMP DP  RH  WIND    PRES   REMARKS
HOOD RIVER AP   PTCLDY      61  45  56  CALM    30.00F
THE DALLES AP   CLOUDY      60  41  49  CALM    30.00F
6HR MIN TEMP:   44; 6HR MAX TEMP:   60;

#ARLINGTON AIRPON/A         58  40  51  W6      29.99F
#CELILO DOT     N/A         56  44  64  NW1     N/A
#MOSIER 1S      N/A         57  36  45  CALM    30.00S
#MURDOCK        N/A         59  46  62  W2      29.96F
#RUFUS DOT      N/A         56  43  62  NW3     N/A
#SMITHVILLE     N/A         59  45  60  N3      29.96F

$$

ORZ510-011910-
NORTH CENTRAL OREGON

CITY            SKY/WX      TMP DP  RH  WIND    PRES   REMARKS
#ANTELOPE       N/A         54  36  50  SW10    29.85F
#CHENOWITH 1W   N/A         55  41  59  CALM    N/A
#COW CYN RST AREN/A         50  N/A N/A S13     N/A
#DUFUR 9E       N/A         54  37  52  SW15    30.03S
#GRASS VALLEY 1SN/A         56  36  47  SW12    29.95S
#KENT DOT       N/A         54  32  43  N16     N/A
#MAUPIN SCHOOL  N/A         61  41  48  S3      30.04F
#SHANIKO 5WSW   N/A         50  31  48  N21     N/A
#SHANIKO 4NW    N/A         51  32  48  SW7     30.00S
#TYGH VALLEY 2NEN/A         60  40  47  N5      29.97F
#WAPANITIA AIRPON/A         58  37  45  SW6     29.98F
#WASCO DOT      N/A         60  40  47  NW7     N/A
#WASCO AIRPORT  N/A         58  36  44  W8      N/A
#WASCO 5NE      N/A         58  40  51  CALM    29.98S
$$

ORZ511-011910-
CENTRAL OREGON

CITY            SKY/WX      TMP DP  RH  WIND    PRES   REMARKS
BEND AIRPORT    PTCLDY      54  34  47  SW16    30.05R
MADRAS AIRPORT  CLOUDY      54  32  43  S8      30.05S
PRINEVILLE AP   CLOUDY      55  30  38  S14G24  30.04S
REDMOND AIRPORT MOCLDY      54  29  38  S17     30.02S
#ASHWOOD SCHOOL N/A         57  32  38  SW9     29.98S
#BEND 1SW       N/A         50  36  58  S1      N/A
#BEND-AWBREY    N/A         51  37  59  SW5     29.98S
#BEND-KIM LN    N/A         51  37  59  NW3     29.94F
#CULVER         N/A         52  34  50  SW6     29.92F
#CULVER 8W      N/A         54  35  48  CALM    30.03R
#LAKE BILLY CHINN/A         50  N/A N/A CALM    30.09S
#MADRAS 4S      N/A         54  12  18  SW7     30.10R
#PRINEVILLE 3N  N/A         54  35  48  S7      29.99F

$$


ORZ509-011910-
EAST SLOPES OF OREGON CASCADES

CITY            SKY/WX      TMP DP  RH  WIND    PRES   REMARKS
#BLUE BOX PASS  N/A         44  N/A N/A SE1     N/A
#CAMP SHERMAN   N/A         47  39  74  N1      30.09S
#LA PINE 4NW    N/A         45  33  63  W3      30.07S
#LAVA BUTTE DOT N/A         46  32  58  S6      N/A
#SISTERS AIRPOR N/A         49  42  77  N5      30.17S
#SISTERS ODOT   N/A         50  N/A N/A W2      N/A
#SISTERS 3N     N/A         49  34  56  N6      30.03S
#SUNRIVER       N/A         47  37  68  SE3     30.02R
#SUTTLE LK DOT  N/A         40  38  92  SW14G30 N/A    WCI 32
#TUMALO 3W      N/A         50  34  54  S7      29.85S
#WANOGA BUTTE D N/A         35  34  96  W14     N/A    WCI 26

$$

ORZ044-011910-
LOWER COLUMBIA BASIN...OREGON

CITY            SKY/WX      TMP DP  RH  WIND    PRES   REMARKS
HERMISTON       SUNNY       65  39  38  W6      29.99F
6HR MIN TEMP:   47; 6HR MAX TEMP:   65;

#BOARDMAN SCHOOLN/A         61  41  48  W6      29.99F
#BOARDMAN 8SW   N/A         62  42  48  W3      29.98F
#ECHO 8SW       N/A         63  39  41  W5      29.99F
#I-84 EX 198 DOTN/A         60  44  55  E7      N/A
#UMATILLA       N/A         61  41  48  CALM    29.92F
$$

ORZ507-011910-
NORTHERN FOOTHILLS OF THE BLUES

CITY            SKY/WX      TMP DP  RH  WIND    PRES   REMARKS
PENDLETON AIRPT SUNNY       60  36  41  VRB3    29.99F
6HR MIN TEMP:   43; 6HR MAX TEMP:   61;

#ADAMS 3WNW     N/A         59  39  47  SW5     29.97F
#ATHENA         N/A         58  38  47  W1      30.00S
#CAYUSE         N/A         60  38  44  W6      29.96F
#HELIX SCHOOL   N/A         58  39  49  N2      29.97F
#HELIX 3N       N/A         58  37  45  SW10    29.97F
#HELIX 6SW      N/A         59  38  45  CALM    29.99F
#HOLDMAN 5SE    N/A         61  39  44  SW6     29.99F
#HOLDMAN 6E     N/A         59  38  45  N5      29.78F
#M-F GROVE ELEM N/A         62  35  36  SW1     29.98S
#M-FREEWATER 5SEN/A         61  41  48  SW6     29.99F
#PENDLETON DNTN N/A         65  41  41  CALM    30.01F
#PDT AQUATIC CTRN/A         54  38  55  N1      30.02S
#PDT SUNRIDGE   N/A         62  39  43  CALM    30.01F
#PENDLETON 7NW  N/A         67  46  47  W7      32.46S
#PILOT ROCK 1S  N/A         63  35  35  E1      29.99F
#PILOT ROCK     N/A         62  41  46  W2      30.01F
#TUTUILLA       N/A         63  40  43  CALM    29.98F
#UMAPINE 2E     N/A         64  43  46  SW5     29.97F
#WESTON SCHOOL  N/A         57  33  40  N5      29.88S

$$

ORZ508-011910-
SOUTHERN FOOTHILLS OF THE BLUES

CITY            SKY/WX      TMP DP  RH  WIND    PRES   REMARKS
LEXINGTON       SUNNY       64  32  30  SW10    30.02F
#AJAX           N/A         57  29  34  SE13    27.75S
#CONDON 5W      N/A         53  32  45  SW14G25 29.98S
#FOSSIL SCHOOL  N/A         56  34  43  SW9     29.96S
#HEPPNER EOC    N/A         59  33  37  SW7     29.89F
#HEPPNER 4NE    N/A         57  32  38  W7      29.96F
#LEXINGTON 2SE  N/A         65  34  31  W10     29.95F
#RUGGS 5NE      N/A         59  33  37  SW13    30.17S
#RUGGS 2SW      N/A         58  31  36  S12     29.98S

$$

ORZ502-503-011910-
BLUE MOUNTAINS

CITY            SKY/WX      TMP DP  RH  WIND    PRES   REMARKS
MEACHAM         SUNNY       54  31  41  VRB3    30.01F
6HR MIN TEMP:   34; 6HR MAX TEMP:   54;

#BATTLE MTN DOT N/A         48  36  63  S6      N/A
#CUTSFORTH PARK N/A         48  35  60  SE2     29.78S
#GREENHORN 9SW  N/A         56  28  34  S7      26.22F
#HARDMAN 10S    N/A         47  31  53  S9      30.08S
#HEPPNER 15SE   N/A         49  33  54  W2      25.54S
#LADD CREEK ODOTN/A         54  39  57  NE2     N/A
#LONG CREEK HS  N/A         53  33  46  SW16G28 30.02F
#N POWDER DOT   N/A         58  40  51  W14     N/A
#PIKES PEAK     N/A         50  34  54  SW13    27.99S
#TOLLGATE       N/A         46  34  63  SW3     29.89R
#TROY SCHOOL    N/A         66  42  42  CALM    29.77F
#UKIAH          N/A         54  36  50  SW7     29.88F
#WESTON 4E      N/A         54  36  50  SW6     29.93S
$$

ORZ505-011910-
JOHN DAY BASIN

CITY            SKY/WX      TMP DP  RH  WIND    PRES   REMARKS
JOHN DAY        PTCLDY      57  31  37  NW10    30.05S
#DAYVILLE SCHOOLN/A         58  31  36  S13     30.00F
#MITCHELL       N/A         55  35  47  S2      30.19R
#MITCHELL 8NW   N/A         52  30  43  S7      30.16S
#MONUMENT HS    N/A         58  37  45  CALM    29.97F
#MT. VERNON 5SE N/A         52  33  48  N1      30.00S
#SPRAY SCHOOL   N/A         60  N/A N/A CALM    N/A
$$

ORZ506-011910-
OCHOCO AND JOHN DAY HIGHLANDS

CITY            SKY/WX      TMP DP  RH  WIND    PRES   REMARKS
#BUCK CREEK DOT N/A         50  33  52  N1      N/A
#HORSE RIDGE DO N/A         51  29  42  S12     N/A
#PAULINA SCHOOL N/A         51  28  41  SW6     N/A
#PINE MTN OBS   N/A         36  29  75  S16     N/A    WCI 26
#PRAIRIE CITY   N/A         54  38  55  CALM    30.21R
#SENECA         N/A         53  N/A N/A N12     N/A
#SENECA 9NW     N/A         51  28  41  W2      29.93R
$$

ORZ049-011910-
GRANDE RONDE VALLEY

CITY            SKY/WX      TMP DP  RH  WIND    PRES   REMARKS
LA GRANDE       SUNNY       57  32  38  E6      30.00F
#COVE SCHOOL    N/A         58  38  47  CALM    30.03F
#ELGIN 3N       N/A         60  35  39  S7      29.97F
#ELGIN 1E       N/A         59  36  42  CALM    N/A
#IMBLER SCHOOL  N/A         56  37  49  CALM    29.97F
#ISLAND CITY 4N N/A         56  51  83  S3      29.99F
#LADD CYN DOT   N/A         57  40  53  N2      N/A
#UNION 1S       N/A         59  38  45  CALM    29.92F
$$

ORZ050-011910-
WALLOWA COUNTY

CITY            SKY/WX      TMP DP  RH  WIND    PRES   REMARKS
JOSEPH AIRPORT  SUNNY       54  34  47  CALM    30.02S
#IMNAHA SCHOOL  N/A         65  39  38  SE1     29.95F
#IMNAHA 10S     N/A         62  38  41  NE2     29.96F
#JOSEPH 3N      N/A         51  33  50  NW5     30.03S
#JOSEPH 3W      N/A         52  39  61  NE1     29.87S
#LOSTINE        N/A         54  36  50  NE2     29.71F
#LOSTINE 3SE    N/A         55  35  47  VRB5    30.00F
#MT HOWARD 8000 N/A         41  10  27  SE7     30.07R
#PROMISE 1S     N/A         53  37  54  E2      30.01S
#WALLOWA SCHOOL N/A         56  36  47  N2      29.96F



$$



USA.gov is the U.S. government's official web portal to all federal, state and local government web resources and services.